| time (UTC) | temp C | wind direction | speed KPH | gust KPH | rain 1hr cm | rain 24hr cm | rain mn cm | humidity % | barometer mb |
| 20260505070024 | 11 | 252 | 3.2 | 12.9 | 0.00 | 0.00 | 0.00 | 76 | 1010.2 |
| 20260505065509 | 11 | 239 | 3.2 | 12.9 | 0.00 | 0.00 | 0.00 | 76 | 1010.2 |
| 20260505065003 | 11 | 240 | 4.8 | 12.9 | 0.00 | 0.00 | 0.00 | 76 | 1010.3 |
| 20260505064512 | 11 | 246 | 4.8 | 12.9 | 0.00 | 0.00 | 0.00 | 76 | 1010.3 |
| 20260505064003 | 11 | 255 | 4.8 | 11.3 | 0.00 | 0.00 | 0.00 | 76 | 1010.2 |
| 20260505063504 | 11 | 250 | 3.2 | 9.7 | 0.00 | 0.00 | 0.00 | 76 | 1010.2 |
| 20260505063008 | 11 | 251 | 4.8 | 11.3 | 0.00 | 0.00 | 0.00 | 75 | 1010.3 |
| 20260505062503 | 11 | 241 | 6.4 | 12.9 | 0.00 | 0.00 | 0.00 | 75 | 1010.3 |
| 20260505062003 | 11 | 252 | 4.8 | 14.5 | 0.00 | 0.00 | 0.00 | 74 | 1010.3 |
| 20260505061513 | 11 | 229 | 4.8 | 14.5 | 0.00 | 0.00 | 0.00 | 74 | 1010.3 |
| 20260505061005 | 12 | 236 | 3.2 | 14.5 | 0.00 | 0.00 | 0.00 | 73 | 1010.3 |
| 20260505060504 | 12 | 231 | 3.2 | 12.9 | 0.00 | 0.00 | 0.00 | 73 | 1010.3 |
| 20260505060008 | 12 | 234 | 8.0 | 12.9 | 0.00 | 0.00 | 0.00 | 72 | 1010.3 |
| 20260505055506 | 12 | 200 | 4.8 | 12.9 | 0.00 | 0.00 | 0.00 | 72 | 1010.2 |
| 20260505055004 | 12 | 223 | 6.4 | 11.3 | 0.00 | 0.00 | 0.00 | 72 | 1010.3 |
| 20260505054504 | 12 | 234 | 4.8 | 9.7 | 0.00 | 0.00 | 0.00 | 72 | 1010.3 |
| 20260505054004 | 12 | 264 | 4.8 | 12.9 | 0.00 | 0.00 | 0.00 | 72 | 1010.3 |
| 20260505053503 | 12 | 249 | 4.8 | 12.9 | 0.00 | 0.00 | 0.00 | 71 | 1010.3 |
| 20260505053009 | 12 | 242 | 4.8 | 16.1 | 0.00 | 0.00 | 0.00 | 71 | 1010.3 |
| 20260505052506 | 12 | 249 | 4.8 | 16.1 | 0.00 | 0.00 | 0.00 | 70 | 1010.3 |
| 20260505052007 | 12 | 247 | 8.0 | 16.1 | 0.00 | 0.00 | 0.00 | 70 | 1010.3 |
| 20260505051508 | 12 | 229 | 3.2 | 17.7 | 0.00 | 0.00 | 0.00 | 69 | 1010.3 |
| 20260505051005 | 12 | 229 | 4.8 | 17.7 | 0.00 | 0.00 | 0.00 | 69 | 1010.4 |
| 20260505050507 | 12 | 219 | 6.4 | 19.3 | 0.00 | 0.00 | 0.00 | 69 | 1010.4 |
| 20260505041511 | 12 | 262 | 8.0 | 19.3 | 0.00 | 0.00 | 0.00 | 69 | 1010.5 |
| 20260505041006 | 12 | 221 | 8.0 | 22.5 | 0.00 | 0.00 | 0.00 | 69 | 1010.5 |
| 20260505040507 | 12 | 220 | 8.0 | 22.5 | 0.00 | 0.00 | 0.00 | 68 | 1010.5 |
| 20260505040018 | 12 | 207 | 8.0 | 20.9 | 0.00 | 0.00 | 0.00 | 68 | 1010.4 |
| 20260505035511 | 12 | 265 | 11.3 | 19.3 | 0.00 | 0.00 | 0.00 | 68 | 1010.4 |
| 20260505035004 | 12 | 221 | 8.0 | 19.3 | 0.00 | 0.00 | 0.00 | 67 | 1010.4 |
| 20260505034516 | 13 | 246 | 6.4 | 19.3 | 0.00 | 0.00 | 0.00 | 67 | 1010.4 |
| 20260505034004 | 13 | 266 | 6.4 | 17.7 | 0.00 | 0.00 | 0.00 | 67 | 1010.4 |
| 20260505033505 | 13 | 230 | 4.8 | 19.3 | 0.00 | 0.00 | 0.00 | 66 | 1010.3 |
| 20260505033015 | 13 | 218 | 8.0 | 20.9 | 0.00 | 0.00 | 0.00 | 66 | 1010.3 |
| 20260505032502 | 13 | 234 | 6.4 | 20.9 | 0.00 | 0.00 | 0.00 | 66 | 1010.4 |
| 20260505032006 | 13 | 209 | 6.4 | 16.1 | 0.00 | 0.00 | 0.00 | 65 | 1010.5 |
| 20260505031508 | 13 | 234 | 6.4 | 17.7 | 0.00 | 0.00 | 0.00 | 65 | 1010.4 |
| 20260505031006 | 13 | 252 | 8.0 | 19.3 | 0.00 | 0.00 | 0.00 | 64 | 1010.3 |
| 20260505030506 | 13 | 223 | 4.8 | 19.3 | 0.00 | 0.00 | 0.00 | 64 | 1010.5 |
| 20260505030017 | 13 | 264 | 12.9 | 19.3 | 0.00 | 0.00 | 0.00 | 63 | 1010.4 |
| 20260505025511 | 13 | 234 | 6.4 | 19.3 | 0.00 | 0.00 | 0.00 | 63 | 1010.4 |
| 20260505025004 | 13 | 249 | 8.0 | 19.3 | 0.00 | 0.00 | 0.00 | 62 | 1010.5 |
| 20260505024517 | 13 | 225 | 6.4 | 16.1 | 0.00 | 0.00 | 0.00 | 61 | 1010.4 |
| 20260505024008 | 13 | 223 | 6.4 | 20.9 | 0.00 | 0.00 | 0.00 | 60 | 1010.6 |
| 20260505023507 | 13 | 235 | 9.7 | 20.9 | 0.00 | 0.00 | 0.00 | 60 | 1010.6 |
| 20260505023013 | 13 | 242 | 11.3 | 20.9 | 0.00 | 0.00 | 0.00 | 59 | 1010.6 |
| 20260505022508 | 14 | 231 | 8.0 | 20.9 | 0.00 | 0.00 | 0.00 | 59 | 1010.5 |
| 20260505022007 | 14 | 240 | 9.7 | 24.1 | 0.00 | 0.00 | 0.00 | 58 | 1010.5 |
| 20260505021509 | 14 | 254 | 8.0 | 24.1 | 0.00 | 0.00 | 0.00 | 59 | 1010.4 |
| 20260505021007 | 13 | 237 | 11.3 | 22.5 | 0.00 | 0.00 | 0.00 | 59 | 1010.4 |
| 20260505020506 | 13 | 236 | 9.7 | 22.5 | 0.00 | 0.00 | 0.00 | 59 | 1010.3 |
| 20260505020013 | 14 | 240 | 8.0 | 20.9 | 0.00 | 0.00 | 0.00 | 59 | 1010.4 |
| 20260505015506 | 14 | 252 | 9.7 | 22.5 | 0.00 | 0.00 | 0.00 | 58 | 1010.4 |
| 20260505015006 | 14 | 222 | 12.9 | 22.5 | 0.00 | 0.00 | 0.00 | 58 | 1010.4 |
| 20260505014516 | 14 | 226 | 9.7 | 24.1 | 0.00 | 0.00 | 0.00 | 57 | 1010.3 |
| 20260505014004 | 14 | 219 | 8.0 | 20.9 | 0.00 | 0.00 | 0.00 | 57 | 1010.3 |
| 20260505013507 | 14 | 248 | 8.0 | 19.3 | 0.00 | 0.00 | 0.00 | 57 | 1010.2 |
| 20260505013016 | 14 | 246 | 8.0 | 17.7 | 0.00 | 0.00 | 0.00 | 57 | 1010.2 |
| 20260505012506 | 15 | 247 | 9.7 | 16.1 | 0.00 | 0.00 | 0.00 | 57 | 1010.2 |
| 20260505012009 | 15 | 187 | 8.0 | 17.7 | 0.00 | 0.00 | 0.00 | 56 | 1010.0 |
| 20260505011514 | 15 | 265 | 6.4 | 20.9 | 0.00 | 0.00 | 0.00 | 55 | 1009.9 |
| 20260505011007 | 15 | 233 | 11.3 | 20.9 | 0.00 | 0.00 | 0.00 | 55 | 1009.9 |
| 20260505010506 | 15 | 224 | 8.0 | 19.3 | 0.00 | 0.00 | 0.00 | 55 | 1009.9 |
| 20260505010010 | 15 | 267 | 6.4 | 20.9 | 0.00 | 0.00 | 0.00 | 54 | 1009.8 |
| 20260505005507 | 15 | 227 | 8.0 | 22.5 | 0.00 | 0.00 | 0.00 | 53 | 1009.7 |
| 20260505005006 | 15 | 248 | 9.7 | 22.5 | 0.00 | 0.00 | 0.00 | 54 | 1009.5 |
| 20260505004516 | 15 | 252 | 9.7 | 25.7 | 0.00 | 0.00 | 0.00 | 54 | 1009.5 |
| 20260505004008 | 15 | 207 | 9.7 | 25.7 | 0.00 | 0.00 | 0.00 | 53 | 1009.4 |
| 20260505003511 | 15 | 204 | 12.9 | 25.7 | 0.00 | 0.00 | 0.00 | 53 | 1009.2 |
| 20260505003015 | 15 | 227 | 12.9 | 25.7 | 0.00 | 0.00 | 0.00 | 53 | 1009.1 |
| 20260505002508 | 16 | 245 | 6.4 | 22.5 | 0.00 | 0.00 | 0.00 | 52 | 1008.9 |
| 20260505002007 | 16 | 208 | 9.7 | 25.7 | 0.00 | 0.00 | 0.00 | 52 | 1008.8 |
| 20260505001517 | 16 | 219 | 14.5 | 29.0 | 0.00 | 0.00 | 0.00 | 51 | 1008.7 |
| 20260505001007 | 16 | 240 | 11.3 | 30.6 | 0.00 | 0.00 | 0.00 | 50 | 1008.6 |
| 20260505000507 | 16 | 238 | 12.9 | 30.6 | 0.00 | 0.00 | 0.00 | 51 | 1008.5 |
| 20260505000029 | 16 | 240 | 14.5 | 27.4 | 0.00 | 0.00 | 0.00 | 52 | 1008.5 |
| 20260504235506 | 16 | 255 | 12.9 | 25.7 | 0.00 | 0.00 | 0.00 | 52 | 1008.4 |
| 20260504235006 | 16 | 192 | 11.3 | 25.7 | 0.00 | 0.00 | 0.00 | 52 | 1008.3 |
| 20260504234514 | 16 | 218 | 9.7 | 25.7 | 0.00 | 0.00 | 0.00 | 51 | 1008.2 |
| 20260504234007 | 17 | 228 | 12.9 | 24.1 | 0.00 | 0.00 | 0.00 | 48 | 1008.1 |
| 20260504233506 | 17 | 232 | 11.3 | 32.2 | 0.00 | 0.00 | 0.00 | 48 | 1008.0 |
| 20260504233022 | 17 | 227 | 12.9 | 38.6 | 0.00 | 0.00 | 0.00 | 47 | 1007.9 |
| 20260504232507 | 17 | 251 | 16.1 | 38.6 | 0.00 | 0.00 | 0.00 | 46 | 1007.8 |
| 20260504232007 | 18 | 200 | 9.7 | 27.4 | 0.00 | 0.00 | 0.00 | 45 | 1007.7 |
| 20260504231516 | 18 | 202 | 8.0 | 27.4 | 0.00 | 0.00 | 0.00 | 45 | 1007.6 |
| 20260504231013 | 18 | 229 | 11.3 | 27.4 | 0.00 | 0.00 | 0.00 | 44 | 1007.4 |
| 20260504230506 | 18 | 277 | 11.3 | 27.4 | 0.00 | 0.00 | 0.00 | 44 | 1007.3 |
| 20260504230014 | 18 | 197 | 12.9 | 40.2 | 0.00 | 0.00 | 0.00 | 44 | 1007.2 |
| 20260504225508 | 18 | 203 | 14.5 | 40.2 | 0.00 | 0.00 | 0.00 | 44 | 1007.1 |
| 20260504225007 | 18 | 190 | 16.1 | 32.2 | 0.00 | 0.00 | 0.00 | 44 | 1007.1 |
| 20260504224512 | 18 | 225 | 12.9 | 30.6 | 0.00 | 0.00 | 0.00 | 44 | 1007.1 |
| 20260504224008 | 18 | 219 | 17.7 | 29.0 | 0.00 | 0.00 | 0.00 | 43 | 1007.0 |
| 20260504223507 | 19 | 251 | 12.9 | 29.0 | 0.00 | 0.00 | 0.00 | 42 | 1007.0 |
| 20260504223020 | 19 | 234 | 16.1 | 29.0 | 0.00 | 0.00 | 0.00 | 42 | 1006.8 |
| 20260504222507 | 19 | 254 | 12.9 | 27.4 | 0.00 | 0.00 | 0.00 | 42 | 1006.8 |
| 20260504222007 | 20 | 234 | 11.3 | 27.4 | 0.00 | 0.00 | 0.00 | 40 | 1006.8 |
| 20260504221526 | 20 | 256 | 9.7 | 25.7 | 0.00 | 0.00 | 0.00 | 40 | 1006.7 |
| 20260504221010 | 20 | 239 | 12.9 | 24.1 | 0.00 | 0.00 | 0.00 | 39 | 1006.6 |
| 20260504220508 | 21 | 255 | 9.7 | 29.0 | 0.00 | 0.00 | 0.00 | 37 | 1006.7 |
| 20260504220038 | 21 | 223 | 11.3 | 25.7 | 0.00 | 0.00 | 0.00 | 36 | 1006.7 |
| 20260504215510 | 22 | 243 | 8.0 | 24.1 | 0.00 | 0.00 | 0.00 | 34 | 1006.7 |
| 20260504215010 | 22 | 238 | 9.7 | 24.1 | 0.00 | 0.00 | 0.00 | 31 | 1006.8 |
| 20260504214522 | 22 | 234 | 8.0 | 22.5 | 0.00 | 0.00 | 0.00 | 29 | 1006.6 |
| 20260504214006 | 23 | 265 | 8.0 | 25.7 | 0.00 | 0.00 | 0.00 | 29 | 1006.7 |
| 20260504213509 | 23 | 242 | 9.7 | 27.4 | 0.00 | 0.00 | 0.00 | 28 | 1006.7 |
| 20260504213015 | 23 | 209 | 16.1 | 27.4 | 0.00 | 0.00 | 0.00 | 29 | 1006.7 |
| 20260504212507 | 23 | 263 | 9.7 | 25.7 | 0.00 | 0.00 | 0.00 | 28 | 1006.7 |
| 20260504212011 | 23 | 270 | 8.0 | 19.3 | 0.00 | 0.00 | 0.00 | 28 | 1006.6 |
| 20260504211521 | 23 | 262 | 8.0 | 17.7 | 0.00 | 0.00 | 0.00 | 28 | 1006.6 |
| 20260504211011 | 23 | 244 | 8.0 | 24.1 | 0.00 | 0.00 | 0.00 | 28 | 1006.7 |
| 20260504210507 | 23 | 247 | 11.3 | 25.7 | 0.00 | 0.00 | 0.00 | 28 | 1006.7 |
| 20260504210024 | 23 | 236 | 11.3 | 25.7 | 0.00 | 0.00 | 0.00 | 28 | 1006.7 |
| 20260504205508 | 23 | 254 | 14.5 | 29.0 | 0.00 | 0.00 | 0.00 | 28 | 1006.8 |
| 20260504205009 | 23 | 211 | 17.7 | 29.0 | 0.00 | 0.00 | 0.00 | 27 | 1006.6 |
| 20260504204535 | 23 | 215 | 9.7 | 29.0 | 0.00 | 0.00 | 0.00 | 29 | 1006.5 |
| 20260504204007 | 23 | 252 | 12.9 | 29.0 | 0.00 | 0.00 | 0.00 | 28 | 1006.7 |
| 20260504203510 | 23 | 242 | 11.3 | 33.8 | 0.00 | 0.00 | 0.00 | 27 | 1006.7 |
| 20260504203023 | 23 | 257 | 14.5 | 33.8 | 0.00 | 0.00 | 0.00 | 27 | 1006.7 |
| 20260504202507 | 23 | 242 | 16.1 | 30.6 | 0.00 | 0.00 | 0.00 | 26 | 1006.8 |
| 20260504202008 | 23 | 236 | 11.3 | 24.1 | 0.00 | 0.00 | 0.00 | 26 | 1006.8 |
| 20260504201522 | 23 | 242 | 11.3 | 22.5 | 0.00 | 0.00 | 0.00 | 26 | 1006.8 |
| 20260504201006 | 23 | 231 | 9.7 | 29.0 | 0.00 | 0.00 | 0.00 | 26 | 1006.8 |
| 20260504200511 | 23 | 234 | 14.5 | 29.0 | 0.00 | 0.00 | 0.00 | 26 | 1006.8 |
| 20260504200020 | 23 | 211 | 8.0 | 25.7 | 0.00 | 0.00 | 0.00 | 27 | 1006.9 |
| 20260504195506 | 23 | 254 | 8.0 | 32.2 | 0.00 | 0.00 | 0.00 | 26 | 1007.0 |
| 20260504195010 | 23 | 226 | 14.5 | 32.2 | 0.00 | 0.00 | 0.00 | 26 | 1006.9 |
| 20260504194517 | 23 | 238 | 16.1 | 32.2 | 0.00 | 0.00 | 0.00 | 26 | 1006.8 |
| 20260504194013 | 23 | 223 | 12.9 | 27.4 | 0.00 | 0.00 | 0.00 | 26 | 1006.7 |
| 20260504193511 | 23 | 200 | 9.7 | 29.0 | 0.00 | 0.00 | 0.00 | 25 | 1006.8 |
| 20260504193026 | 23 | 219 | 6.4 | 29.0 | 0.00 | 0.00 | 0.00 | 26 | 1006.8 |
| 20260504192510 | 23 | 254 | 11.3 | 30.6 | 0.00 | 0.00 | 0.00 | 26 | 1006.8 |
| 20260504192013 | 23 | 241 | 8.0 | 30.6 | 0.00 | 0.00 | 0.00 | 26 | 1006.8 |
| 20260504191526 | 23 | 339 | 11.3 | 27.4 | 0.00 | 0.00 | 0.00 | 26 | 1006.8 |
| 20260504191008 | 23 | 246 | 9.7 | 35.4 | 0.00 | 0.00 | 0.00 | 26 | 1006.8 |
| 20260504190509 | 22 | 229 | 19.3 | 35.4 | 0.00 | 0.00 | 0.00 | 26 | 1007.0 |
| 20260504190028 | 23 | 232 | 17.7 | 35.4 | 0.00 | 0.00 | 0.00 | 26 | 1007.0 |
| 20260504185509 | 23 | 232 | 12.9 | 24.1 | 0.00 | 0.00 | 0.00 | 26 | 1007.0 |
| 20260504185005 | 23 | 238 | 8.0 | 29.0 | 0.00 | 0.00 | 0.00 | 27 | 1007.0 |
| 20260504184507 | 23 | 248 | 8.0 | 29.0 | 0.00 | 0.00 | 0.00 | 26 | 1007.0 |
| 20260504184008 | 23 | 230 | 11.3 | 35.4 | 0.00 | 0.00 | 0.00 | 26 | 1007.1 |
| 20260504183506 | 23 | 229 | 17.7 | 35.4 | 0.00 | 0.00 | 0.00 | 26 | 1007.1 |
| 20260504183003 | 22 | 221 | 9.7 | 38.6 | 0.00 | 0.00 | 0.00 | 27 | 1007.2 |
| 20260504182502 | 22 | 234 | 14.5 | 38.6 | 0.00 | 0.00 | 0.00 | 27 | 1007.3 |
| 20260504182009 | 22 | 247 | 9.7 | 33.8 | 0.00 | 0.00 | 0.00 | 28 | 1007.3 |
| 20260504181519 | 22 | 264 | 19.3 | 33.8 | 0.00 | 0.00 | 0.00 | 26 | 1007.3 |
| 20260504181007 | 22 | 231 | 14.5 | 33.8 | 0.00 | 0.00 | 0.00 | 26 | 1007.4 |
| 20260504180506 | 22 | 211 | 6.4 | 25.7 | 0.00 | 0.00 | 0.00 | 28 | 1007.5 |
| 20260504180017 | 22 | 200 | 12.9 | 33.8 | 0.00 | 0.00 | 0.00 | 27 | 1007.5 |
| 20260504175503 | 22 | 252 | 11.3 | 33.8 | 0.00 | 0.00 | 0.00 | 27 | 1007.5 |
| 20260504175003 | 22 | 249 | 14.5 | 33.8 | 0.00 | 0.00 | 0.00 | 28 | 1007.4 |
| 20260504174503 | 22 | 244 | 16.1 | 32.2 | 0.00 | 0.00 | 0.00 | 29 | 1007.4 |
| 20260504174003 | 22 | 248 | 17.7 | 32.2 | 0.00 | 0.00 | 0.00 | 28 | 1007.5 |
| 20260504173504 | 22 | 253 | 16.1 | 32.2 | 0.00 | 0.00 | 0.00 | 28 | 1007.5 |
| 20260504173008 | 22 | 264 | 17.7 | 35.4 | 0.00 | 0.00 | 0.00 | 27 | 1007.6 |
| 20260504172506 | 22 | 237 | 17.7 | 35.4 | 0.00 | 0.00 | 0.00 | 28 | 1007.6 |
| 20260504172006 | 21 | 240 | 16.1 | 33.8 | 0.00 | 0.00 | 0.00 | 27 | 1007.6 |
| 20260504171508 | 21 | 236 | 16.1 | 37.0 | 0.00 | 0.00 | 0.00 | 29 | 1007.7 |
| 20260504171010 | 21 | 245 | 16.1 | 40.2 | 0.00 | 0.00 | 0.00 | 28 | 1007.6 |
| 20260504170506 | 21 | 221 | 11.3 | 41.8 | 0.00 | 0.00 | 0.00 | 28 | 1007.5 |
| 20260504151011 | 20 | 226 | 17.7 | 46.7 | 0.00 | 0.00 | 0.00 | 33 | 1009.0 |
| 20260504150507 | 20 | 227 | 19.3 | 33.8 | 0.00 | 0.00 | 0.00 | 32 | 1009.0 |
| 20260504141006 | 18 | 228 | 6.4 | 19.3 | 0.00 | 0.00 | 0.00 | 37 | 1009.6 |
| 20260504140503 | 18 | 260 | 8.0 | 19.3 | 0.00 | 0.00 | 0.00 | 36 | 1009.7 |
| 20260504130510 | 15 | 220 | 4.8 | 20.9 | 0.00 | 0.00 | 0.00 | 40 | 1010.2 |
| 20260504110507 | 9 | 239 | 4.8 | 12.9 | 0.00 | 0.00 | 0.00 | 54 | 1010.8 |
| 20260504100507 | 8 | 221 | 1.6 | 6.4 | 0.00 | 0.00 | 0.00 | 53 | 1010.8 |
| 20260504082006 | 9 | 236 | 4.8 | 11.3 | 0.00 | 0.00 | 0.00 | 50 | 1010.5 |
| 20260504081509 | 9 | 248 | 3.2 | 12.9 | 0.00 | 0.00 | 0.00 | 50 | 1010.5 |
| 20260504081008 | 9 | 245 | 4.8 | 12.9 | 0.00 | 0.00 | 0.00 | 50 | 1010.5 |
| 20260504080510 | 9 | 236 | 4.8 | 9.7 | 0.00 | 0.00 | 0.00 | 50 | 1010.5 |